TimeCDT,TemperatureF,Dew PointF,Humidity,Sea Level PressureIn,VisibilityMPH,Wind Direction,Wind SpeedMPH,Gust SpeedMPH,PrecipitationIn,Events,Conditions,WindDirDegrees,DateUTC
12:13 AM,51.8,32.0,47,29.82,10.0,Calm,Calm,-,N/A,,Scattered Clouds,0,2013-05-16 05:13:00
12:33 AM,51.8,32.0,47,29.83,10.0,Calm,Calm,-,N/A,,Scattered Clouds,0,2013-05-16 05:33:00
12:53 AM,51.8,32.0,47,29.84,10.0,Calm,Calm,-,N/A,,Clear,0,2013-05-16 05:53:00
1:13 AM,51.8,33.8,50,29.84,10.0,Calm,Calm,-,N/A,,Clear,0,2013-05-16 06:13:00
1:33 AM,51.8,32.0,47,29.84,10.0,Calm,Calm,-,N/A,,Scattered Clouds,0,2013-05-16 06:33:00
1:53 AM,51.8,35.6,54,29.85,10.0,Calm,Calm,-,N/A,,Mostly Cloudy,0,2013-05-16 06:53:00
2:13 AM,51.8,33.8,50,29.85,10.0,Calm,Calm,-,N/A,,Light Drizzle,0,2013-05-16 07:13:00
2:33 AM,50.0,33.8,54,29.85,10.0,Calm,Calm,-,N/A,,Mostly Cloudy,0,2013-05-16 07:33:00
2:53 AM,50.0,33.8,54,29.86,10.0,Calm,Calm,-,N/A,,Mostly Cloudy,0,2013-05-16 07:53:00
3:13 AM,51.8,32.0,47,29.87,10.0,NE,3.5,-,N/A,,Scattered Clouds,40,2013-05-16 08:13:00
3:33 AM,53.6,32.0,44,29.87,10.0,NE,3.5,-,N/A,,Scattered Clouds,40,2013-05-16 08:33:00
3:53 AM,53.6,32.0,44,29.88,7.0,NE,4.6,-,N/A,,Clear,40,2013-05-16 08:53:00
4:13 AM,53.6,32.0,44,29.88,10.0,NE,3.5,-,N/A,,Clear,40,2013-05-16 09:13:00
4:33 AM,51.8,32.0,47,29.88,10.0,NE,5.8,-,N/A,,Clear,40,2013-05-16 09:33:00
4:53 AM,53.6,32.0,44,29.89,10.0,NE,5.8,-,N/A,,Clear,40,2013-05-16 09:53:00
5:13 AM,50.0,32.0,50,29.89,10.0,NE,5.8,-,N/A,,Clear,40,2013-05-16 10:13:00
5:33 AM,51.8,32.0,47,29.89,10.0,NE,3.5,-,N/A,,Clear,40,2013-05-16 10:33:00
5:53 AM,51.8,32.0,47,29.90,10.0,NE,3.5,-,N/A,,Clear,40,2013-05-16 10:53:00
6:13 AM,51.8,32.0,47,29.90,10.0,NE,3.5,-,N/A,,Clear,50,2013-05-16 11:13:00
6:33 AM,51.8,32.0,47,29.92,10.0,Calm,Calm,-,N/A,,Clear,0,2013-05-16 11:33:00
6:53 AM,51.8,33.8,50,29.92,10.0,NE,3.5,-,N/A,,Clear,40,2013-05-16 11:53:00
7:13 AM,53.6,32.0,44,29.92,10.0,ENE,4.6,-,N/A,,Clear,60,2013-05-16 12:13:00
7:33 AM,55.4,32.0,41,29.93,10.0,NE,5.8,-,N/A,,Clear,40,2013-05-16 12:33:00
7:53 AM,59.0,30.2,34,29.94,10.0,ENE,5.8,-,N/A,,Clear,70,2013-05-16 12:53:00
8:13 AM,59.0,28.4,31,29.95,10.0,ENE,6.9,-,N/A,,Clear,60,2013-05-16 13:13:00
8:33 AM,59.0,26.6,29,29.95,10.0,ENE,8.1,-,N/A,,Clear,60,2013-05-16 13:33:00
8:53 AM,59.0,24.8,27,29.95,10.0,East,9.2,-,N/A,,Clear,90,2013-05-16 13:53:00
9:13 AM,60.8,26.6,27,29.96,10.0,ENE,8.1,-,N/A,,Clear,70,2013-05-16 14:13:00
9:33 AM,62.6,26.6,26,29.96,10.0,ENE,6.9,-,N/A,,Clear,60,2013-05-16 14:33:00
10:13 AM,64.4,24.8,22,29.97,10.0,East,5.8,-,N/A,,Clear,100,2013-05-16 15:13:00
10:33 AM,66.2,23.0,19,29.97,10.0,ESE,5.8,-,N/A,,Clear,110,2013-05-16 15:33:00
10:53 AM,66.2,23.0,19,29.97,10.0,ENE,8.1,-,N/A,,Clear,70,2013-05-16 15:53:00
11:13 AM,68.0,23.0,18,29.97,10.0,ESE,6.9,-,N/A,,Clear,110,2013-05-16 16:13:00
11:33 AM,68.0,23.0,18,29.96,10.0,ESE,4.6,-,N/A,,Clear,110,2013-05-16 16:33:00
11:53 AM,68.0,21.2,17,29.96,10.0,NNE,10.4,-,N/A,,Clear,30,2013-05-16 16:53:00
12:13 PM,69.8,21.2,16,29.96,10.0,Calm,Calm,-,N/A,,Clear,0,2013-05-16 17:13:00
12:33 PM,68.0,19.4,16,29.96,10.0,NNE,9.2,-,N/A,,Clear,30,2013-05-16 17:33:00
12:53 PM,71.6,19.4,14,29.96,10.0,NNE,10.4,-,N/A,,Clear,30,2013-05-16 17:53:00
1:13 PM,71.6,19.4,14,29.95,10.0,NE,8.1,-,N/A,,Clear,40,2013-05-16 18:13:00
1:33 PM,71.6,21.2,15,29.95,10.0,East,4.6,-,N/A,,Clear,90,2013-05-16 18:33:00
1:53 PM,71.6,21.2,15,29.94,10.0,ENE,6.9,11.5,N/A,,Clear,60,2013-05-16 18:53:00
2:13 PM,71.6,21.2,15,29.94,10.0,NE,9.2,-,N/A,,Clear,40,2013-05-16 19:13:00
2:33 PM,73.4,19.4,13,29.94,10.0,NE,5.8,-,N/A,,Clear,50,2013-05-16 19:33:00
2:53 PM,73.4,19.4,13,29.94,10.0,NE,8.1,-,N/A,,Clear,50,2013-05-16 19:53:00
3:13 PM,73.4,19.4,13,29.94,10.0,NE,6.9,16.1,N/A,,Clear,50,2013-05-16 20:13:00
3:33 PM,73.4,19.4,13,29.95,10.0,ENE,9.2,-,N/A,,Clear,60,2013-05-16 20:33:00
3:53 PM,73.4,17.6,12,29.94,10.0,ENE,8.1,-,N/A,,Clear,60,2013-05-16 20:53:00
4:13 PM,73.4,15.8,11,29.93,10.0,ENE,8.1,16.1,N/A,,Clear,60,2013-05-16 21:13:00
4:33 PM,73.4,15.8,11,29.94,10.0,East,6.9,-,N/A,,Clear,80,2013-05-16 21:33:00
5:13 PM,71.6,15.8,12,29.95,10.0,ENE,8.1,-,N/A,,Clear,60,2013-05-16 22:13:00
5:33 PM,71.6,17.6,13,29.95,10.0,ENE,5.8,-,N/A,,Clear,60,2013-05-16 22:33:00
5:53 PM,69.8,15.8,13,29.95,10.0,ENE,5.8,-,N/A,,Clear,70,2013-05-16 22:53:00
6:13 PM,69.8,17.6,14,29.96,10.0,East,5.8,-,N/A,,Clear,90,2013-05-16 23:13:00
6:33 PM,69.8,15.8,13,29.96,10.0,East,4.6,-,N/A,,Clear,80,2013-05-16 23:33:00
6:53 PM,68.0,15.8,13,29.95,10.0,ENE,5.8,-,N/A,,Clear,70,2013-05-16 23:53:00
7:13 PM,68.0,17.6,15,29.96,10.0,ENE,4.6,-,N/A,,Clear,60,2013-05-17 00:13:00
7:33 PM,64.4,21.2,19,29.96,10.0,ENE,5.8,-,N/A,,Clear,70,2013-05-17 00:33:00
7:53 PM,62.6,23.0,22,29.96,10.0,ENE,8.1,-,N/A,,Clear,60,2013-05-17 00:53:00
8:13 PM,59.0,23.0,25,29.97,10.0,NE,8.1,-,N/A,,Clear,50,2013-05-17 01:13:00
8:33 PM,55.4,24.8,31,29.97,10.0,ENE,6.9,-,N/A,,Clear,60,2013-05-17 01:33:00
8:53 PM,53.6,26.6,35,29.97,10.0,ENE,8.1,-,N/A,,Clear,60,2013-05-17 01:53:00
9:13 PM,51.8,26.6,38,29.98,10.0,NE,6.9,-,N/A,,Clear,50,2013-05-17 02:13:00
9:33 PM,50.0,26.6,40,29.98,10.0,NE,9.2,-,N/A,,Clear,50,2013-05-17 02:33:00
9:53 PM,48.2,28.4,46,29.97,10.0,NE,8.1,-,N/A,,Clear,50,2013-05-17 02:53:00
10:13 PM,46.4,28.4,50,29.98,10.0,ENE,8.1,-,N/A,,Clear,60,2013-05-17 03:13:00
10:33 PM,46.4,28.4,50,29.98,10.0,ENE,9.2,-,N/A,,Clear,60,2013-05-17 03:33:00
10:53 PM,46.4,28.4,50,29.98,10.0,ENE,6.9,-,N/A,,Clear,70,2013-05-17 03:53:00
11:13 PM,44.6,28.4,53,29.99,10.0,ENE,6.9,-,N/A,,Clear,60,2013-05-17 04:13:00
11:33 PM,44.6,28.4,53,29.99,10.0,ENE,6.9,-,N/A,,Mostly Cloudy,70,2013-05-17 04:33:00
11:53 PM,44.6,28.4,53,29.99,10.0,ENE,5.8,-,N/A,,Scattered Clouds,60,2013-05-17 04:53:00